Location: Arbon
(43.0005°N, 0.7472°E)
Time: 22:50:26
(UTC+00:00)

Explorer 7 - Pass Details

Date: 26 November 2020
Orbit: 484 x 678 km, 50.3° (Epoch: 26 January)

Event Time Altitude Azimuth Distance (km) Brightness Sun altitude
Rises 07:42:11 0° 300° (WNW) 2,710 9.7 5.2°
Reaches altitude 10° 07:44:31 10° 305° (NW) 1,784 8.8 5.5°
Maximum altitude 07:48:29 56° 24° (NNE) 611 7.1 6.1°
Drops below altitude 10° 07:52:15 10° 104° (ESE) 1,694 10.8 6.7°
Sets 07:54:25 0° 108° (ESE) 2,558 11.9 7.0°
